Location: ????????
(54.8751°N, 38.5756°E)
Time: 14:20:48
(UTC+00:00)

Cosmos 1766 - Pass Details

Date: 14 April 2024
Orbit: 487 x 505 km, 82.5° (Epoch: 18 May)

Event Time Altitude Azimuth Distance (km) Brightness Sun altitude
Rises 01:07:55 0° 351° (N) 2,589 7.1 -10.7°
Reaches altitude 10° 01:10:05 10° 356° (N) 1,698 6.2 -10.5°
Maximum altitude 01:13:44 53° 74° (ENE) 610 4.0 -10.0°
Drops below altitude 10° 01:17:19 10° 153° (SSE) 1,676 5.7 -9.6°
Sets 01:19:30 0° 158° (SSE) 2,574 6.6 -9.3°
